| time (UTC) | temp C | wind direction | speed KPH | gust KPH | rain 1hr cm | rain 24hr cm | rain mn cm | humidity % | barometer mb |
| 20260502181546 | 21 | 107 | 0.0 | 4.8 | 0.00 | 0.00 | 0.00 | 40 | 1017.3 |
| 20260502163040 | 25 | 107 | 1.6 | 9.7 | 0.00 | 0.00 | 0.00 | 30 | 1016.6 |
| 20260502161622 | 25 | 107 | 1.6 | 6.4 | 0.00 | 0.00 | 0.00 | 30 | 1016.7 |
| 20260502151505 | 24 | 107 | 0.0 | 14.5 | 0.00 | 0.00 | 0.00 | 36 | 1017.3 |
| 20260502123115 | 23 | 143 | 1.6 | 6.4 | 0.00 | 0.00 | 0.00 | 36 | 1020.2 |
| 20260502121528 | 22 | 143 | 1.6 | 11.3 | 0.00 | 0.00 | 0.00 | 39 | 1020.4 |
| 20260502120119 | 21 | 143 | 1.6 | 11.3 | 0.00 | 0.00 | 0.00 | 39 | 1020.7 |
| 20260502114520 | 22 | 143 | 1.6 | 4.8 | 0.00 | 0.00 | 0.00 | 38 | 1021.1 |
| 20260502113053 | 21 | 143 | 3.2 | 8.0 | 0.00 | 0.00 | 0.00 | 37 | 1021.6 |
| 20260502111522 | 20 | 143 | 1.6 | 8.0 | 0.00 | 0.00 | 0.00 | 38 | 1021.9 |
| 20260502110054 | 20 | 143 | 0.0 | 6.4 | 0.00 | 0.00 | 0.00 | 39 | 1022.2 |
| 20260502104518 | 20 | 143 | 0.0 | 11.3 | 0.00 | 0.00 | 0.00 | 40 | 1022.6 |
| 20260502103048 | 20 | 143 | 0.0 | 4.8 | 0.00 | 0.00 | 0.00 | 40 | 1022.9 |
| 20260502101525 | 19 | 143 | 0.0 | 6.4 | 0.00 | 0.00 | 0.00 | 42 | 1023.2 |
| 20260502100103 | 18 | 143 | 0.0 | 4.8 | 0.00 | 0.00 | 0.00 | 45 | 1023.6 |
| 20260502091529 | 17 | 143 | 0.0 | 6.4 | 0.00 | 0.00 | 0.00 | 48 | 1024.3 |
| 20260502090104 | 16 | 143 | 0.0 | 6.4 | 0.00 | 0.00 | 0.00 | 51 | 1024.6 |
| 20260502080109 | 15 | 143 | 1.6 | 8.0 | 0.00 | 0.00 | 0.00 | 55 | 1025.7 |
| 20260502070015 | 13 | 143 | 0.0 | 3.2 | 0.00 | 0.00 | 0.00 | 64 | 1026.5 |
| 20260502064636 | 12 | 143 | 0.0 | 1.6 | 0.00 | 0.00 | 0.00 | 65 | 1026.7 |
| 20260502063002 | 11 | 143 | 0.0 | 0.0 | 0.00 | 0.00 | 0.00 | 68 | 1026.8 |
| 20260502061534 | 11 | 143 | 0.0 | 0.0 | 0.00 | 0.00 | 0.00 | 71 | 1027.0 |
| 20260502060004 | 10 | 143 | 0.0 | 0.0 | 0.00 | 0.00 | 0.00 | 75 | 1027.1 |
| 20260502054534 | 8 | 143 | 0.0 | 0.0 | 0.00 | 0.00 | 0.00 | 78 | 1027.2 |
| 20260502053101 | 7 | 143 | 0.0 | 0.0 | 0.00 | 0.00 | 0.00 | 80 | 1027.1 |
| 20260502051535 | 7 | 143 | 0.0 | 0.0 | 0.00 | 0.00 | 0.00 | 81 | 1027.1 |
| 20260502044535 | 7 | 143 | 0.0 | 0.0 | 0.00 | 0.00 | 0.00 | 81 | 1027.0 |
| 20260502043014 | 7 | 143 | 0.0 | 0.0 | 0.00 | 0.00 | 0.00 | 80 | 1027.0 |
| 20260502041538 | 7 | 143 | 0.0 | 0.0 | 0.00 | 0.00 | 0.00 | 80 | 1026.9 |
| 20260502040022 | 7 | 143 | 0.0 | 0.0 | 0.00 | 0.00 | 0.00 | 79 | 1026.8 |
| 20260502034602 | 7 | 143 | 0.0 | 0.0 | 0.00 | 0.00 | 0.00 | 78 | 1026.7 |
| 20260502033031 | 7 | 143 | 0.0 | 0.0 | 0.00 | 0.00 | 0.00 | 78 | 1026.6 |
| 20260502031511 | 7 | 143 | 0.0 | 0.0 | 0.00 | 0.00 | 0.00 | 80 | 1026.6 |
| 20260502030047 | 7 | 143 | 0.0 | 0.0 | 0.00 | 0.00 | 0.00 | 80 | 1026.6 |
| 20260502024522 | 7 | 143 | 0.0 | 0.0 | 0.00 | 0.00 | 0.00 | 78 | 1026.6 |
| 20260502023046 | 7 | 143 | 0.0 | 0.0 | 0.00 | 0.00 | 0.00 | 79 | 1026.4 |
| 20260502021518 | 7 | 143 | 0.0 | 0.0 | 0.00 | 0.00 | 0.00 | 78 | 1026.4 |
| 20260502020038 | 7 | 143 | 0.0 | 0.0 | 0.00 | 0.00 | 0.00 | 78 | 1026.3 |
| 20260502014509 | 8 | 143 | 0.0 | 0.0 | 0.00 | 0.00 | 0.00 | 77 | 1026.2 |
| 20260502013030 | 8 | 143 | 0.0 | 0.0 | 0.00 | 0.00 | 0.00 | 76 | 1026.3 |
| 20260502011515 | 8 | 143 | 0.0 | 0.0 | 0.00 | 0.00 | 0.00 | 75 | 1026.3 |
| 20260502010046 | 8 | 143 | 0.0 | 0.0 | 0.00 | 0.00 | 0.00 | 75 | 1026.2 |
| 20260502004522 | 8 | 143 | 0.0 | 0.0 | 0.00 | 0.00 | 0.00 | 74 | 1026.2 |
| 20260502003054 | 9 | 143 | 0.0 | 0.0 | 0.00 | 0.00 | 0.00 | 72 | 1026.2 |
| 20260502001526 | 9 | 143 | 0.0 | 0.0 | 0.00 | 0.00 | 0.00 | 72 | 1026.2 |
| 20260502000107 | 9 | 143 | 0.0 | 0.0 | 0.00 | 0.00 | 0.00 | 72 | 1026.1 |
| 20260501234535 | 9 | 143 | 0.0 | 0.0 | 0.00 | 0.00 | 0.00 | 73 | 1026.2 |
| 20260501233104 | 10 | 143 | 0.0 | 0.0 | 0.00 | 0.00 | 0.00 | 72 | 1026.1 |
| 20260501231529 | 10 | 143 | 0.0 | 0.0 | 0.00 | 0.00 | 0.00 | 70 | 1026.0 |
| 20260501230106 | 10 | 143 | 0.0 | 0.0 | 0.00 | 0.00 | 0.00 | 69 | 1025.8 |
| 20260501224536 | 10 | 143 | 0.0 | 0.0 | 0.00 | 0.00 | 0.00 | 71 | 1025.8 |
| 20260501223003 | 10 | 143 | 0.0 | 0.0 | 0.00 | 0.00 | 0.00 | 68 | 1025.7 |
| 20260501221553 | 11 | 143 | 0.0 | 0.0 | 0.00 | 0.00 | 0.00 | 67 | 1025.6 |
| 20260501220032 | 11 | 143 | 0.0 | 0.0 | 0.00 | 0.00 | 0.00 | 65 | 1025.3 |
| 20260501214500 | 12 | 143 | 0.0 | 0.0 | 0.00 | 0.00 | 0.00 | 61 | 1025.1 |
| 20260501213037 | 13 | 143 | 0.0 | 0.0 | 0.00 | 0.00 | 0.00 | 58 | 1025.1 |
| 20260501211517 | 13 | 143 | 0.0 | 0.0 | 0.00 | 0.00 | 0.00 | 55 | 1024.8 |
| 20260501210048 | 14 | 143 | 0.0 | 0.0 | 0.00 | 0.00 | 0.00 | 52 | 1024.7 |
| 20260501204524 | 15 | 143 | 0.0 | 0.0 | 0.00 | 0.00 | 0.00 | 50 | 1024.5 |
| 20260501203006 | 15 | 143 | 0.0 | 4.8 | 0.00 | 0.00 | 0.00 | 48 | 1024.2 |
| 20260501201555 | 15 | 143 | 1.6 | 4.8 | 0.00 | 0.00 | 0.00 | 47 | 1024.0 |
| 20260501200035 | 16 | 143 | 0.0 | 6.4 | 0.00 | 0.00 | 0.00 | 48 | 1023.7 |
| 20260501194511 | 16 | 143 | 0.0 | 4.8 | 0.00 | 0.00 | 0.00 | 46 | 1023.5 |
| 20260501193044 | 17 | 143 | 0.0 | 6.4 | 0.00 | 0.00 | 0.00 | 44 | 1023.2 |
| 20260501191526 | 17 | 143 | 0.0 | 1.6 | 0.00 | 0.00 | 0.00 | 42 | 1022.9 |
| 20260501190002 | 17 | 143 | 1.6 | 6.4 | 0.00 | 0.00 | 0.00 | 41 | 1022.6 |
| 20260501184551 | 17 | 143 | 0.0 | 8.0 | 0.00 | 0.00 | 0.00 | 41 | 1022.2 |
| 20260501183027 | 18 | 143 | 0.0 | 6.4 | 0.00 | 0.00 | 0.00 | 42 | 1021.8 |